Year,Month,Day,Hour,Minute,Value (Times are PST for temperature in C)
2007,09,13,00,00,11.40
2007,09,13,00,01,11.40
2007,09,13,00,02,11.40
2007,09,13,00,03,11.40
2007,09,13,00,04,11.40
2007,09,13,00,05,11.40
2007,09,13,00,06,11.40
2007,09,13,00,07,11.40
2007,09,13,00,08,11.40
2007,09,13,00,09,11.40
2007,09,13,00,10,11.40
2007,09,13,00,11,11.40
2007,09,13,00,12,11.40
2007,09,13,01,02,11.10
2007,09,13,01,03,11.10
2007,09,13,01,04,11.10
2007,09,13,01,05,11.00
2007,09,13,01,06,11.00
2007,09,13,01,07,10.90
2007,09,13,01,08,10.90
2007,09,13,01,09,10.90
2007,09,13,01,10,10.90
2007,09,13,01,11,10.90
2007,09,13,01,12,10.90
2007,09,13,01,13,10.90
2007,09,13,01,14,10.90
2007,09,13,01,15,10.90
2007,09,13,01,16,10.90
2007,09,13,01,17,10.90
2007,09,13,01,18,10.90
2007,09,13,01,19,10.90
2007,09,13,01,20,10.90
2007,09,13,01,21,10.90
2007,09,13,01,22,10.90
2007,09,13,01,23,10.90
2007,09,13,01,24,10.90
2007,09,13,01,25,10.90
2007,09,13,01,26,10.90
2007,09,13,01,27,10.90
2007,09,13,01,28,10.90
2007,09,13,01,29,10.90
2007,09,13,01,30,10.90
2007,09,13,01,31,10.90
2007,09,13,01,32,10.90
2007,09,13,01,33,10.80
2007,09,13,01,34,10.80
2007,09,13,01,35,10.80
2007,09,13,01,36,10.80
2007,09,13,01,37,10.80
2007,09,13,01,38,10.80
2007,09,13,01,39,10.80
2007,09,13,01,40,10.80
2007,09,13,01,41,10.80
2007,09,13,01,42,10.70
2007,09,13,01,43,10.70
2007,09,13,01,44,10.70
2007,09,13,01,45,10.70
2007,09,13,01,46,10.70
2007,09,13,01,47,10.70
2007,09,13,01,48,10.70
2007,09,13,01,49,10.70
2007,09,13,01,50,10.70
2007,09,13,01,51,10.70
2007,09,13,01,52,10.70
2007,09,13,01,53,10.70
2007,09,13,01,54,10.60
2007,09,13,01,55,10.60
2007,09,13,01,56,10.60
2007,09,13,01,57,10.60
2007,09,13,01,58,10.60
2007,09,13,01,59,10.60
2007,09,13,02,00,10.60
2007,09,13,02,01,10.60
2007,09,13,02,02,10.60
2007,09,13,02,03,10.60
2007,09,13,02,04,10.60
2007,09,13,02,05,10.60
2007,09,13,02,06,10.60
2007,09,13,02,07,10.60
2007,09,13,02,08,10.60
2007,09,13,02,09,10.60
2007,09,13,02,10,10.60
2007,09,13,02,11,10.60
2007,09,13,02,12,10.60
2007,09,13,02,13,10.60
2007,09,13,02,14,10.60
2007,09,13,02,15,10.50
2007,09,13,02,16,10.40
2007,09,13,02,17,10.40
2007,09,13,02,18,10.40
2007,09,13,02,19,10.40
2007,09,13,02,20,10.40
2007,09,13,02,21,10.40
2007,09,13,02,22,10.40
2007,09,13,02,23,10.40
2007,09,13,02,24,10.40
2007,09,13,02,25,10.40
2007,09,13,02,26,10.40
2007,09,13,02,27,10.40
2007,09,13,02,28,10.40
2007,09,13,02,29,10.40
2007,09,13,02,30,10.40
2007,09,13,02,31,10.30
2007,09,13,02,32,10.30
2007,09,13,02,33,10.30
2007,09,13,02,34,10.30
2007,09,13,02,35,10.30
2007,09,13,02,36,10.30
2007,09,13,02,37,10.30
2007,09,13,02,38,10.30
2007,09,13,02,39,10.20
2007,09,13,02,40,10.20
2007,09,13,02,41,10.20
2007,09,13,02,42,10.20
2007,09,13,02,43,10.20
2007,09,13,02,44,10.20
2007,09,13,02,45,10.20
2007,09,13,02,46,10.20
2007,09,13,02,47,10.20
2007,09,13,02,48,10.10
2007,09,13,02,49,10.10
2007,09,13,02,50,10.10
2007,09,13,02,51,10.10
2007,09,13,02,52,10.10
2007,09,13,02,53,10.10
2007,09,13,02,54,10.10
2007,09,13,02,55,10.10
2007,09,13,02,56,10.10
2007,09,13,02,57,10.10
2007,09,13,02,58,10.10
2007,09,13,02,59,10.10
2007,09,13,03,00,10.10
2007,09,13,03,01,10.10
2007,09,13,03,02,10.10
2007,09,13,03,03,10.10
2007,09,13,03,04,10.10
2007,09,13,03,05,10.10
2007,09,13,03,06,10.10
2007,09,13,03,07,9.90
2007,09,13,03,08,9.90
2007,09,13,03,09,9.90
2007,09,13,03,10,9.90
2007,09,13,03,11,9.90
2007,09,13,03,12,9.90
2007,09,13,03,13,9.90
2007,09,13,03,14,9.90
2007,09,13,03,15,9.90
2007,09,13,03,16,9.90
2007,09,13,03,17,9.90
2007,09,13,03,18,9.90
2007,09,13,03,19,10.00
2007,09,13,03,20,10.10
2007,09,13,03,21,10.10
2007,09,13,03,22,10.00
2007,09,13,03,23,9.90
2007,09,13,03,24,9.90
2007,09,13,03,25,9.90
2007,09,13,03,26,9.90
2007,09,13,03,27,9.90
2007,09,13,03,28,9.90
2007,09,13,03,29,9.90
2007,09,13,03,30,9.90
2007,09,13,03,31,9.90
2007,09,13,03,32,9.90
2007,09,13,03,33,9.90
2007,09,13,03,34,9.90
2007,09,13,03,35,9.90
2007,09,13,03,36,9.90
2007,09,13,03,37,9.90
2007,09,13,03,38,9.90
2007,09,13,03,39,9.90
2007,09,13,03,40,9.90
2007,09,13,03,41,9.90
2007,09,13,03,42,9.90
2007,09,13,03,43,9.90
2007,09,13,03,44,9.80
2007,09,13,03,45,9.80
2007,09,13,03,46,9.80
2007,09,13,03,47,9.80
2007,09,13,03,48,9.80
2007,09,13,03,49,9.80
2007,09,13,03,50,9.80
2007,09,13,03,51,9.80
2007,09,13,03,52,9.80
2007,09,13,03,53,9.70
2007,09,13,03,54,9.70
2007,09,13,03,55,9.70
2007,09,13,03,56,9.70
2007,09,13,03,57,9.70
2007,09,13,03,58,9.70
2007,09,13,03,59,9.70
2007,09,13,04,00,9.70
2007,09,13,04,01,9.70
2007,09,13,04,02,9.70
2007,09,13,04,03,9.70
2007,09,13,04,04,9.70
2007,09,13,04,05,9.70
2007,09,13,04,06,9.70
2007,09,13,04,07,9.70
2007,09,13,04,08,9.70
2007,09,13,04,09,9.70
2007,09,13,04,10,9.70
2007,09,13,04,11,9.70
2007,09,13,04,12,9.70
2007,09,13,04,13,9.70
2007,09,13,04,14,9.70
2007,09,13,04,15,9.70
2007,09,13,04,16,9.70
2007,09,13,04,17,9.70
2007,09,13,04,18,9.70
2007,09,13,04,19,9.70
2007,09,13,04,20,9.70
2007,09,13,04,21,9.70
2007,09,13,04,22,9.70
2007,09,13,04,23,9.70
2007,09,13,04,24,9.70
2007,09,13,04,25,9.70
2007,09,13,04,26,9.70
2007,09,13,04,27,9.70
2007,09,13,04,28,9.70
2007,09,13,04,29,9.70
2007,09,13,04,30,9.70
2007,09,13,04,31,9.70
2007,09,13,04,32,9.70
2007,09,13,04,33,9.70
2007,09,13,04,34,9.70
2007,09,13,04,35,9.70
2007,09,13,04,36,9.70
2007,09,13,04,37,9.70
2007,09,13,04,38,9.70
2007,09,13,04,39,9.70
2007,09,13,04,40,9.70
2007,09,13,04,41,9.70
2007,09,13,04,42,9.70
2007,09,13,04,43,9.70
2007,09,13,04,44,9.70
2007,09,13,04,45,9.70
2007,09,13,04,46,9.70
2007,09,13,04,47,9.70
2007,09,13,04,48,9.80
2007,09,13,04,49,9.80
2007,09,13,04,50,9.80
2007,09,13,04,51,9.80
2007,09,13,04,52,9.80
2007,09,13,04,53,9.80
2007,09,13,04,54,9.80
2007,09,13,04,55,9.80
2007,09,13,04,56,9.90
2007,09,13,04,57,9.90
2007,09,13,04,58,9.90
2007,09,13,04,59,9.90
2007,09,13,05,00,9.90
2007,09,13,05,01,9.90
2007,09,13,05,02,9.90
2007,09,13,05,03,9.90
2007,09,13,05,04,9.90
2007,09,13,05,05,9.90
2007,09,13,05,06,9.90
2007,09,13,05,07,9.90
2007,09,13,05,08,9.90
2007,09,13,05,09,10.00
2007,09,13,05,10,10.10
2007,09,13,05,11,10.10
2007,09,13,05,12,10.10
2007,09,13,05,13,10.10
2007,09,13,05,14,10.10
2007,09,13,05,15,10.10
2007,09,13,05,16,10.10
2007,09,13,05,17,10.10
2007,09,13,05,18,10.10
2007,09,13,05,19,10.10
2007,09,13,05,20,10.10
2007,09,13,05,21,10.10
2007,09,13,05,22,10.10
2007,09,13,05,23,10.10
2007,09,13,05,24,10.10
2007,09,13,05,25,10.10
2007,09,13,05,26,10.10
2007,09,13,05,27,10.10
2007,09,13,05,28,10.10
2007,09,13,05,29,10.10
2007,09,13,05,30,10.00
2007,09,13,05,31,9.90
2007,09,13,05,32,9.90
2007,09,13,05,33,9.90
2007,09,13,05,34,9.90
2007,09,13,05,35,9.90
2007,09,13,05,36,9.90
2007,09,13,05,37,9.90
2007,09,13,05,38,9.90
2007,09,13,05,39,9.90
2007,09,13,05,40,9.90
2007,09,13,05,41,9.90
2007,09,13,05,42,9.90
2007,09,13,05,43,9.80
2007,09,13,05,44,9.80
2007,09,13,05,45,9.80
2007,09,13,05,46,9.80
2007,09,13,05,47,9.80
2007,09,13,05,48,9.80
2007,09,13,05,49,9.80
2007,09,13,05,50,9.80
2007,09,13,05,51,9.80
2007,09,13,05,52,9.70
2007,09,13,05,53,9.70
2007,09,13,05,54,9.70
2007,09,13,05,55,9.70
2007,09,13,05,56,9.70
2007,09,13,05,57,9.70
2007,09,13,05,58,9.70
2007,09,13,05,59,9.70
2007,09,13,06,00,9.70
2007,09,13,06,01,9.70
2007,09,13,06,02,9.70
2007,09,13,06,03,9.70
2007,09,13,06,04,9.70
2007,09,13,06,05,9.70
2007,09,13,06,06,9.70
2007,09,13,06,07,9.70
2007,09,13,06,08,9.60
2007,09,13,06,09,9.60
2007,09,13,06,10,9.60
2007,09,13,06,11,9.60
2007,09,13,06,12,9.60
2007,09,13,06,13,9.60
2007,09,13,06,14,9.60
2007,09,13,06,15,9.60
2007,09,13,06,16,9.60
2007,09,13,06,17,9.60
2007,09,13,06,18,9.60
2007,09,13,06,19,9.60
2007,09,13,06,20,9.60
2007,09,13,06,21,9.60
2007,09,13,06,22,9.60
2007,09,13,06,23,9.60
2007,09,13,06,24,9.60
2007,09,13,06,25,9.60
2007,09,13,06,26,9.60
2007,09,13,06,27,9.60
2007,09,13,06,28,9.60
2007,09,13,06,29,9.60
2007,09,13,06,30,9.60
2007,09,13,06,31,9.50
2007,09,13,06,32,9.50
2007,09,13,06,33,9.50
2007,09,13,06,34,9.50
2007,09,13,06,35,9.50
2007,09,13,06,36,9.50
2007,09,13,06,37,9.50
2007,09,13,06,38,9.40
2007,09,13,06,39,9.40
2007,09,13,06,40,9.40
2007,09,13,06,41,9.40
2007,09,13,06,42,9.40
2007,09,13,06,43,9.40
2007,09,13,06,44,9.40
2007,09,13,06,45,9.40
2007,09,13,06,46,9.40
2007,09,13,06,47,9.40
2007,09,13,06,48,9.40
2007,09,13,06,49,9.40
2007,09,13,06,50,9.40
2007,09,13,06,51,9.40
2007,09,13,06,52,9.40
2007,09,13,06,53,9.40
2007,09,13,06,54,9.40
2007,09,13,06,55,9.40
2007,09,13,06,56,9.40
2007,09,13,06,57,9.40
2007,09,13,06,58,9.40
2007,09,13,06,59,9.50
2007,09,13,07,00,9.50
2007,09,13,07,01,9.50
2007,09,13,07,02,9.50
2007,09,13,07,03,9.50
2007,09,13,07,04,9.50
2007,09,13,07,05,9.50
2007,09,13,07,06,9.50
2007,09,13,07,07,9.50
2007,09,13,07,08,9.60
2007,09,13,07,09,9.60
2007,09,13,07,10,9.60
2007,09,13,07,11,9.60
2007,09,13,07,12,9.60
2007,09,13,07,13,9.60
2007,09,13,07,14,9.60
2007,09,13,07,15,9.70
2007,09,13,07,16,9.70
2007,09,13,07,17,9.70
2007,09,13,07,18,9.70
2007,09,13,07,19,9.70
2007,09,13,07,20,9.70
2007,09,13,07,21,9.70
2007,09,13,07,22,9.70
2007,09,13,07,23,9.70
2007,09,13,07,24,9.70
2007,09,13,07,25,9.70
2007,09,13,07,26,9.70
2007,09,13,07,27,9.70
2007,09,13,07,28,9.70
2007,09,13,07,29,9.70
2007,09,13,07,30,9.70
2007,09,13,07,31,9.70
2007,09,13,07,32,9.70
2007,09,13,07,33,9.70
2007,09,13,07,34,9.70
2007,09,13,07,35,9.70
2007,09,13,07,36,9.70
2007,09,13,07,37,9.70
2007,09,13,07,38,9.70
2007,09,13,07,39,9.70
2007,09,13,07,40,9.70
2007,09,13,07,41,9.80
2007,09,13,07,42,9.80
2007,09,13,07,43,9.80
2007,09,13,07,44,9.80
2007,09,13,07,45,9.80
2007,09,13,07,46,9.80
2007,09,13,07,47,9.80
2007,09,13,07,48,9.80
2007,09,13,07,49,9.80
2007,09,13,07,50,9.80
2007,09,13,07,51,9.80
2007,09,13,07,52,9.80
2007,09,13,07,53,9.80
2007,09,13,07,54,9.90
2007,09,13,07,55,9.90
2007,09,13,07,56,9.90
2007,09,13,07,57,9.90
2007,09,13,07,58,9.90
2007,09,13,07,59,9.90
2007,09,13,08,00,9.90
2007,09,13,08,01,9.90
2007,09,13,08,02,9.90
2007,09,13,08,03,9.90
2007,09,13,08,04,9.90
2007,09,13,08,05,9.90
2007,09,13,08,06,9.90
2007,09,13,08,07,9.90
2007,09,13,08,08,9.90
2007,09,13,08,09,9.90
2007,09,13,08,10,9.90
2007,09,13,08,11,10.10
2007,09,13,08,12,10.10
2007,09,13,08,13,10.10
2007,09,13,08,14,10.10
2007,09,13,08,15,10.10
2007,09,13,08,16,10.10
2007,09,13,08,17,10.20
2007,09,13,08,18,10.20
2007,09,13,08,19,10.30
2007,09,13,08,20,10.30
2007,09,13,08,21,10.40
2007,09,13,08,22,10.40
2007,09,13,08,23,10.40
2007,09,13,08,24,10.50
2007,09,13,08,25,10.60
2007,09,13,08,26,10.60
2007,09,13,08,27,10.60
2007,09,13,08,28,10.60
2007,09,13,08,29,10.60
2007,09,13,08,30,10.60
2007,09,13,08,31,10.60
2007,09,13,08,32,10.60
2007,09,13,08,33,10.60
2007,09,13,08,34,10.60
2007,09,13,08,35,10.60
2007,09,13,08,36,10.60
2007,09,13,08,37,10.60
2007,09,13,08,38,10.70
2007,09,13,08,39,10.80
2007,09,13,08,40,10.90
2007,09,13,08,41,11.00
2007,09,13,08,42,11.10
2007,09,13,08,43,11.10
2007,09,13,08,44,11.20
2007,09,13,08,45,11.30
2007,09,13,08,46,11.40
2007,09,13,08,47,11.60
2007,09,13,08,48,11.70
2007,09,13,08,49,11.80
2007,09,13,08,50,11.80
2007,09,13,08,51,11.90
2007,09,13,08,52,11.90
2007,09,13,08,53,12.00
2007,09,13,08,54,12.00
2007,09,13,08,55,12.10
2007,09,13,08,56,12.20
2007,09,13,08,57,12.20
2007,09,13,08,58,12.10
2007,09,13,08,59,12.00
2007,09,13,09,00,12.00
2007,09,13,09,01,11.90
2007,09,13,09,02,11.80
2007,09,13,09,03,11.80
2007,09,13,09,04,11.80
2007,09,13,09,05,11.80
2007,09,13,09,06,11.80
2007,09,13,09,07,11.80
2007,09,13,09,08,11.80
2007,09,13,09,09,11.80
2007,09,13,09,10,11.80
2007,09,13,09,11,11.80
2007,09,13,09,12,11.80
2007,09,13,09,13,11.80
2007,09,13,09,14,11.80
2007,09,13,09,15,11.80
2007,09,13,09,16,11.80
2007,09,13,09,17,11.80
2007,09,13,09,18,11.80
2007,09,13,09,19,11.80
2007,09,13,09,20,11.80
2007,09,13,09,21,11.90
2007,09,13,09,22,12.00
2007,09,13,09,23,12.00
2007,09,13,09,24,12.20
2007,09,13,09,25,12.30
2007,09,13,09,26,12.30
2007,09,13,09,27,12.40
2007,09,13,09,28,12.50
2007,09,13,09,29,12.60
2007,09,13,09,30,12.60
2007,09,13,09,31,12.60
2007,09,13,09,32,12.60
2007,09,13,09,33,12.60
2007,09,13,09,34,12.60
2007,09,13,09,35,12.60
2007,09,13,09,36,12.70
2007,09,13,09,37,12.70
2007,09,13,09,38,12.70
2007,09,13,09,39,12.80
2007,09,13,09,40,12.80
2007,09,13,09,41,12.80
2007,09,13,09,42,12.90
2007,09,13,09,43,13.00
2007,09,13,09,44,13.00
2007,09,13,09,45,13.10
2007,09,13,09,46,13.20
2007,09,13,09,47,13.30
2007,09,13,09,48,13.30
2007,09,13,09,49,13.50
2007,09,13,09,50,13.60
2007,09,13,09,51,13.70
2007,09,13,09,52,13.90
2007,09,13,09,53,14.00
2007,09,13,09,54,14.10
2007,09,13,09,55,14.20
2007,09,13,09,56,14.30
2007,09,13,09,57,14.30
2007,09,13,09,58,14.40
2007,09,13,09,59,14.40
2007,09,13,10,00,14.40
2007,09,13,10,01,14.40
2007,09,13,10,02,14.40
2007,09,13,10,03,14.40
2007,09,13,10,04,14.40
2007,09,13,10,05,14.40
2007,09,13,10,06,14.40
2007,09,13,10,07,14.50
2007,09,13,10,08,14.60
2007,09,13,10,09,14.60
2007,09,13,10,10,14.70
2007,09,13,10,11,14.70
2007,09,13,10,12,14.60
2007,09,13,10,13,14.60
2007,09,13,10,14,14.60
2007,09,13,10,15,14.70
2007,09,13,10,16,14.70
2007,09,13,10,17,14.80
2007,09,13,10,18,14.80
2007,09,13,10,19,14.90
2007,09,13,10,20,14.90
2007,09,13,10,21,15.00
2007,09,13,10,22,15.00
2007,09,13,10,23,15.00
2007,09,13,10,24,15.00
2007,09,13,10,25,15.10
2007,09,13,10,26,15.10
2007,09,13,10,27,15.10
2007,09,13,10,28,15.00
2007,09,13,10,29,15.00
2007,09,13,10,30,15.10
2007,09,13,10,31,15.10
2007,09,13,10,32,15.10
2007,09,13,10,33,15.20
2007,09,13,10,34,15.30
2007,09,13,10,35,15.30
2007,09,13,10,36,15.50
2007,09,13,10,37,15.60
2007,09,13,10,38,15.70
2007,09,13,10,39,15.90
2007,09,13,10,40,16.10
2007,09,13,10,41,16.10
2007,09,13,10,42,16.10
2007,09,13,10,43,16.10
2007,09,13,10,44,16.10
2007,09,13,10,45,16.10
2007,09,13,10,46,16.20
2007,09,13,10,47,16.30
2007,09,13,10,48,16.30
2007,09,13,10,49,16.40
2007,09,13,10,50,16.40
2007,09,13,10,51,16.50
2007,09,13,10,52,16.60
2007,09,13,10,53,16.60
2007,09,13,10,54,16.60
2007,09,13,10,55,16.60
2007,09,13,10,56,16.60
2007,09,13,10,57,16.60
2007,09,13,10,58,16.60
2007,09,13,10,59,16.70
2007,09,13,11,00,16.70
2007,09,13,11,01,16.70
2007,09,13,11,02,16.80
2007,09,13,11,03,16.90
2007,09,13,11,04,17.00
2007,09,13,11,05,17.00
2007,09,13,11,06,17.10
2007,09,13,11,07,17.20
2007,09,13,11,08,17.20
2007,09,13,11,09,17.20
2007,09,13,11,10,17.30
2007,09,13,11,11,17.30
2007,09,13,11,12,17.30
2007,09,13,11,13,17.40
2007,09,13,11,14,17.40
2007,09,13,11,15,17.40
2007,09,13,11,16,17.40
2007,09,13,11,17,17.30
2007,09,13,11,18,17.30
2007,09,13,11,19,17.30
2007,09,13,11,20,17.10
2007,09,13,11,21,17.00
2007,09,13,11,22,16.90
2007,09,13,11,23,16.80
2007,09,13,11,24,16.80
2007,09,13,11,25,16.80
2007,09,13,11,26,16.80
2007,09,13,11,27,16.80
2007,09,13,11,28,16.90
2007,09,13,11,29,16.90
2007,09,13,11,30,16.90
2007,09,13,11,31,17.00
2007,09,13,11,32,16.90
2007,09,13,11,33,16.90
2007,09,13,11,34,16.90
2007,09,13,11,35,17.00
2007,09,13,11,36,17.00
2007,09,13,11,37,17.00
2007,09,13,11,38,17.00
2007,09,13,11,39,17.00
2007,09,13,11,40,17.00
2007,09,13,11,41,17.20
2007,09,13,11,42,17.40
2007,09,13,11,43,17.50
2007,09,13,11,44,17.70
2007,09,13,11,45,17.70
2007,09,13,11,46,17.80
2007,09,13,11,47,17.90
2007,09,13,11,48,17.90
2007,09,13,11,49,17.90
2007,09,13,11,50,17.80
2007,09,13,11,51,17.80
2007,09,13,11,52,17.80
2007,09,13,11,53,17.80
2007,09,13,11,54,17.80
2007,09,13,11,55,17.80
2007,09,13,11,56,17.70
2007,09,13,11,57,17.70
2007,09,13,11,58,17.70
2007,09,13,11,59,17.70
2007,09,13,12,00,17.70
2007,09,13,12,01,17.70
2007,09,13,12,02,17.70
2007,09,13,12,03,17.80
2007,09,13,12,04,17.90
2007,09,13,12,05,17.90
2007,09,13,12,06,18.00
2007,09,13,12,07,18.10
2007,09,13,12,08,18.20
2007,09,13,12,09,18.30
2007,09,13,12,10,18.40
2007,09,13,12,11,18.50
2007,09,13,12,12,18.50
2007,09,13,12,13,18.60
2007,09,13,12,14,18.70
2007,09,13,12,15,18.80
2007,09,13,12,16,18.90
2007,09,13,12,17,19.00
2007,09,13,12,18,19.10
2007,09,13,12,19,19.10
2007,09,13,12,20,19.20
2007,09,13,12,21,19.20
2007,09,13,12,22,19.20
2007,09,13,12,23,19.20
2007,09,13,12,24,19.20
2007,09,13,12,25,19.20
2007,09,13,12,26,19.30
2007,09,13,12,27,19.30
2007,09,13,12,28,19.20
2007,09,13,12,29,19.10
2007,09,13,12,30,19.10
2007,09,13,12,31,19.10
2007,09,13,12,32,19.10
2007,09,13,12,33,19.10
2007,09,13,12,34,19.10
2007,09,13,12,35,19.10
2007,09,13,12,36,19.10
2007,09,13,12,37,19.20
2007,09,13,12,38,19.30
2007,09,13,12,39,19.30
2007,09,13,12,40,19.40
2007,09,13,12,41,19.50
2007,09,13,12,42,19.60
2007,09,13,12,43,19.70
2007,09,13,12,44,19.80
2007,09,13,12,45,19.80
2007,09,13,12,46,19.80
2007,09,13,12,47,19.80
2007,09,13,12,48,19.70
2007,09,13,12,49,19.70
2007,09,13,12,50,19.60
2007,09,13,12,51,19.60
2007,09,13,12,52,19.60
2007,09,13,12,53,19.50
2007,09,13,12,54,19.50
2007,09,13,12,55,19.40
2007,09,13,12,56,19.40
2007,09,13,12,57,19.40
2007,09,13,12,58,19.30
2007,09,13,12,59,19.30
2007,09,13,13,00,19.40
2007,09,13,13,01,19.50
2007,09,13,13,02,19.60
2007,09,13,13,03,19.60
2007,09,13,13,04,19.70
2007,09,13,13,05,19.70
2007,09,13,13,06,19.70
2007,09,13,13,07,19.80
2007,09,13,13,08,19.90
2007,09,13,13,09,20.00
2007,09,13,13,10,20.10
2007,09,13,13,11,20.20
2007,09,13,13,12,20.20
2007,09,13,13,13,20.20
2007,09,13,13,14,20.20
2007,09,13,13,15,20.20
2007,09,13,13,16,20.20
2007,09,13,13,17,20.20
2007,09,13,13,18,20.20
2007,09,13,13,19,20.20
2007,09,13,13,20,20.20
2007,09,13,13,21,20.30
2007,09,13,13,22,20.30
2007,09,13,13,23,20.40
2007,09,13,13,24,20.40
2007,09,13,13,25,20.40
2007,09,13,13,26,20.40
2007,09,13,13,27,20.40
2007,09,13,13,28,20.40
2007,09,13,13,29,20.60
2007,09,13,13,30,20.70
2007,09,13,13,31,20.80
2007,09,13,13,32,20.90
2007,09,13,13,33,20.90
2007,09,13,13,34,21.00
2007,09,13,13,35,21.00
2007,09,13,13,36,21.00
2007,09,13,13,37,21.00
2007,09,13,13,38,21.00
2007,09,13,13,39,21.00
2007,09,13,13,40,21.00
2007,09,13,13,41,20.90
2007,09,13,13,42,20.80
2007,09,13,13,43,20.80
2007,09,13,13,44,20.80
2007,09,13,13,45,20.80
2007,09,13,13,46,20.80
2007,09,13,13,47,20.80
2007,09,13,13,48,20.90
2007,09,13,13,49,21.00
2007,09,13,13,50,21.10
2007,09,13,13,51,21.10
2007,09,13,13,52,21.30
2007,09,13,13,53,21.30
2007,09,13,13,54,21.50
2007,09,13,13,55,21.60
2007,09,13,13,56,21.60
2007,09,13,13,57,21.60
2007,09,13,13,58,21.50
2007,09,13,13,59,21.40
2007,09,13,14,00,21.40
2007,09,13,14,01,21.30
2007,09,13,14,02,21.20
2007,09,13,14,03,21.10
2007,09,13,14,04,21.00
2007,09,13,14,05,21.00
2007,09,13,14,06,21.00
2007,09,13,14,07,21.00
2007,09,13,14,08,21.00
2007,09,13,14,09,21.10
2007,09,13,14,10,21.10
2007,09,13,14,11,21.20
2007,09,13,14,12,21.20
2007,09,13,14,13,21.30
2007,09,13,14,14,21.30
2007,09,13,14,15,21.30
2007,09,13,14,16,21.30
2007,09,13,14,17,21.30
2007,09,13,14,18,21.30
2007,09,13,14,19,21.30
2007,09,13,14,20,21.30
2007,09,13,14,21,21.30
2007,09,13,14,22,21.30
2007,09,13,14,23,21.30
2007,09,13,14,24,21.30
2007,09,13,14,25,21.30
2007,09,13,14,26,21.30
2007,09,13,14,27,21.40
2007,09,13,14,28,21.40
2007,09,13,14,29,21.40
2007,09,13,14,30,21.50
2007,09,13,14,31,21.60
2007,09,13,14,32,21.60
2007,09,13,14,33,21.60
2007,09,13,14,34,21.60
2007,09,13,14,35,21.60
2007,09,13,14,36,21.60
2007,09,13,14,37,21.50
2007,09,13,14,38,21.50
2007,09,13,14,39,21.60
2007,09,13,14,40,21.40
2007,09,13,14,41,21.40
2007,09,13,14,42,21.40
2007,09,13,14,43,21.40
2007,09,13,14,44,21.40
2007,09,13,14,45,21.40
2007,09,13,14,46,21.40
2007,09,13,14,47,21.40
2007,09,13,14,48,21.40
2007,09,13,14,49,21.30
2007,09,13,14,50,21.30
2007,09,13,14,51,21.20
2007,09,13,14,52,21.20
2007,09,13,14,53,21.10
2007,09,13,14,54,21.10
2007,09,13,14,55,21.10
2007,09,13,14,56,21.00
2007,09,13,14,57,20.90
2007,09,13,14,58,20.80
2007,09,13,14,59,20.60
2007,09,13,15,00,20.60
2007,09,13,15,01,20.60
2007,09,13,15,02,20.60
2007,09,13,15,03,20.70
2007,09,13,15,04,20.80
2007,09,13,15,05,20.80
2007,09,13,15,06,20.90
2007,09,13,15,07,20.80
2007,09,13,15,08,20.80
2007,09,13,15,09,20.80
2007,09,13,15,10,20.80
2007,09,13,15,11,20.80
2007,09,13,15,12,20.70
2007,09,13,15,13,20.70
2007,09,13,15,14,20.60
2007,09,13,15,15,20.60
2007,09,13,15,16,20.60
2007,09,13,15,17,20.60
2007,09,13,15,18,20.70
2007,09,13,15,19,20.80
2007,09,13,15,20,20.80
2007,09,13,15,21,20.90
2007,09,13,15,22,21.00
2007,09,13,15,23,21.00
2007,09,13,15,24,21.00
2007,09,13,15,25,20.90
2007,09,13,15,26,20.80
2007,09,13,15,27,20.70
2007,09,13,15,28,20.70
2007,09,13,15,29,20.60
2007,09,13,15,30,20.50
2007,09,13,15,31,20.40
2007,09,13,15,32,20.40
2007,09,13,15,33,20.40
2007,09,13,15,34,20.50
2007,09,13,15,35,20.50
2007,09,13,15,36,20.40
2007,09,13,15,37,20.30
2007,09,13,15,38,19.80
2007,09,13,15,39,19.50
2007,09,13,15,40,19.30
2007,09,13,15,41,19.20
2007,09,13,15,42,19.10
2007,09,13,15,43,19.10
2007,09,13,15,44,19.10
2007,09,13,15,45,19.30
2007,09,13,15,46,19.30
2007,09,13,15,47,19.30
2007,09,13,15,48,19.30
2007,09,13,15,49,19.20
2007,09,13,15,50,19.10
2007,09,13,15,51,19.10
2007,09,13,15,52,19.10
2007,09,13,15,53,19.10
2007,09,13,15,54,19.10
2007,09,13,15,55,19.10
2007,09,13,15,56,19.10
2007,09,13,15,57,19.10
2007,09,13,15,58,19.30
2007,09,13,15,59,19.40
2007,09,13,16,00,19.50
2007,09,13,16,01,19.60
2007,09,13,16,02,19.60
2007,09,13,16,03,19.70
2007,09,13,16,04,19.70
2007,09,13,16,05,19.80
2007,09,13,16,06,19.90
2007,09,13,16,07,20.00
2007,09,13,16,08,20.10
2007,09,13,16,09,20.10
2007,09,13,16,10,20.20
2007,09,13,16,11,20.20
2007,09,13,16,12,20.40
2007,09,13,16,13,20.50
2007,09,13,16,14,20.70
2007,09,13,16,15,20.80
2007,09,13,16,16,20.90
2007,09,13,16,17,20.90
2007,09,13,16,18,20.80
2007,09,13,16,19,20.70
2007,09,13,16,20,20.60
2007,09,13,16,21,20.40
2007,09,13,16,22,20.20
2007,09,13,16,23,20.10
2007,09,13,16,24,19.90
2007,09,13,16,25,19.90
2007,09,13,16,26,19.90
2007,09,13,16,27,19.90
2007,09,13,16,28,19.80
2007,09,13,16,29,19.80
2007,09,13,16,30,19.80
2007,09,13,16,31,19.80
2007,09,13,16,32,19.80
2007,09,13,16,33,19.80
2007,09,13,16,34,19.80
2007,09,13,16,35,19.80
2007,09,13,16,36,19.80
2007,09,13,16,37,19.80
2007,09,13,16,38,19.80
2007,09,13,16,39,19.80
2007,09,13,16,40,19.70
2007,09,13,16,41,19.70
2007,09,13,16,42,19.60
2007,09,13,16,43,19.60
2007,09,13,16,44,19.50
2007,09,13,16,45,19.50
2007,09,13,16,46,19.50
2007,09,13,16,47,19.50
2007,09,13,16,48,19.60
2007,09,13,16,49,19.70
2007,09,13,16,50,19.70
2007,09,13,16,51,19.70
2007,09,13,16,52,19.70
2007,09,13,16,53,19.70
2007,09,13,16,54,19.60
2007,09,13,16,55,19.60
2007,09,13,16,56,19.60
2007,09,13,16,57,19.50
2007,09,13,16,58,19.50
2007,09,13,16,59,19.40
2007,09,13,17,00,19.40
2007,09,13,17,01,19.50
2007,09,13,17,02,19.50
2007,09,13,17,03,19.60
2007,09,13,17,04,19.60
2007,09,13,17,05,19.60
2007,09,13,17,06,19.70
2007,09,13,17,07,19.80
2007,09,13,17,08,19.80
2007,09,13,17,09,19.70
2007,09,13,17,10,19.70
2007,09,13,17,11,19.70
2007,09,13,17,12,19.70
2007,09,13,17,13,19.70
2007,09,13,17,14,19.70
2007,09,13,17,15,19.70
2007,09,13,17,16,19.70
2007,09,13,17,17,19.70
2007,09,13,17,18,19.70
2007,09,13,17,19,19.80
2007,09,13,17,20,19.90
2007,09,13,17,21,19.90
2007,09,13,17,22,19.90
2007,09,13,17,23,20.00
2007,09,13,17,24,19.90
2007,09,13,17,25,19.90
2007,09,13,17,26,19.90
2007,09,13,17,27,19.80
2007,09,13,17,28,19.70
2007,09,13,17,29,19.70
2007,09,13,17,30,19.60
2007,09,13,17,31,19.60
2007,09,13,17,32,19.60
2007,09,13,17,33,19.60
2007,09,13,17,34,19.60
2007,09,13,17,35,19.60
2007,09,13,17,36,19.50
2007,09,13,17,37,19.50
2007,09,13,17,38,19.40
2007,09,13,17,39,19.40
2007,09,13,17,40,19.30
2007,09,13,17,41,19.30
2007,09,13,17,42,19.20
2007,09,13,17,43,19.10
2007,09,13,17,44,19.10
2007,09,13,17,45,19.10
2007,09,13,17,46,18.90
2007,09,13,17,47,18.90
2007,09,13,17,48,18.90
2007,09,13,17,49,18.90
2007,09,13,17,50,18.80
2007,09,13,17,51,18.80
2007,09,13,17,52,18.80
2007,09,13,17,53,18.70
2007,09,13,17,54,18.70
2007,09,13,17,55,18.70
2007,09,13,17,56,18.60
2007,09,13,17,57,18.60
2007,09,13,17,58,18.60
2007,09,13,17,59,18.60
2007,09,13,18,00,18.60
2007,09,13,18,01,18.60
2007,09,13,18,02,18.60
2007,09,13,18,03,18.60
2007,09,13,18,04,18.60
2007,09,13,18,05,18.70
2007,09,13,18,06,18.70
2007,09,13,18,07,18.70
2007,09,13,18,08,18.70
2007,09,13,18,09,18.80
2007,09,13,18,10,18.80
2007,09,13,18,11,18.80
2007,09,13,18,12,18.90
2007,09,13,18,13,18.90
2007,09,13,18,14,18.90
2007,09,13,18,15,18.90
2007,09,13,18,16,18.90
2007,09,13,18,17,18.90
2007,09,13,18,18,18.90
2007,09,13,18,19,19.10
2007,09,13,18,20,19.00